Weather History for KGON - September, 2011

Change the Weather History Date:

Thursday, September 22, 2011

  Actual Average Record
Temperature  
Mean Temperature 70 °F -  
Max Temperature 75 °F 71 °F 87 °F (1970)
Min Temperature 66 °F 52 °F 33 °F (1962)
Cooling Degree Days 4    
Growing Degree Days 20 (Base 50)    
Moisture  
Dew Point 68 °F    
Average Humidity 94    
Maximum Humidity 100    
Minimum Humidity 85    
Precipitation  
Precipitation 0.00 in - - ()
Sea Level Pressure  
Sea Level Pressure 30.12 in    
Wind  
Wind Speed 4 mph (SE)    
Max Wind Speed 9 mph    
Max Gust Speed -    
Visibility 8 miles    
Events Rain    
Averages and records for this station are not official NWS values.
T = Trace of Precipitation, MM = Missing Value Source: NWS Daily Summary

Daily Weather History Graph

Daily Weather History Graph

Search for Another Location

Airport or City:

Trip Planner

Search our weather history database for the weather conditions in past years. The results will help you decide how hot, cold, wet, or windy it might be!

Date:

Astronomy

Sep. 22, 2011 Rise Set
Actual Time 6:35 AM EDT 6:45 PM EDT
Civil Twilight 6:07 AM EDT 7:13 PM EDT
Nautical Twilight 5:35 AM EDT 7:45 PM EDT
Astronomical Twilight 5:02 AM EDT 8:18 PM EDT
Moon 12:49 AM EDT (9/22) 3:39 PM EDT (9/22)
Length of Visible Light 13h 05m
Length of Day
12h 10m
Waning Crescent, 29% of the Moon is Illuminated
Sep 22
Waning Crescent
Sep 27
New
Oct 3
First Quarter
Oct 11
Full
Oct 19
Last Quarter

Hourly Weather History & Observations

Time (EDT) Temp. Dew Point Humidity Pressure Visibility Wind Dir Wind Speed Gust Speed Precip Events Conditions
12:10 AM 68.0 °F 66.2 °F 94% 30.19 in 10.0 mi ESE 5.8 mph - N/A   Overcast
12:53 AM 66.2 °F 66.2 °F 100% 30.18 in 10.0 mi East 4.6 mph - N/A   Overcast
12:56 AM 66.9 °F 66.0 °F 97% 30.18 in 10.0 mi East 3.5 mph - N/A   Mostly Cloudy
1:32 AM 66.2 °F 66.2 °F 100% 30.17 in 10.0 mi Calm Calm - N/A   Mostly Cloudy
1:56 AM 68.0 °F 66.0 °F 93% 30.16 in 10.0 mi East 3.5 mph - N/A   Overcast
2:56 AM 68.0 °F 66.9 °F 96% 30.14 in 10.0 mi SE 6.9 mph - 0.00 in   Overcast
3:56 AM 68.0 °F 66.2 °F 94% 30.13 in 10.0 mi ESE 3.5 mph - N/A   Overcast
4:44 AM 68.0 °F 66.2 °F 94% 30.12 in 10.0 mi Calm Calm - N/A   Overcast
4:56 AM 68.0 °F 66.9 °F 96% 30.12 in 10.0 mi Calm Calm - N/A   Overcast
5:23 AM 68.0 °F 66.2 °F 94% 30.12 in 10.0 mi ENE 3.5 mph - N/A   Overcast
5:35 AM 68.0 °F 66.2 °F 94% 30.12 in 10.0 mi East 5.8 mph - N/A   Overcast
5:43 AM 68.0 °F 66.2 °F 94% 30.12 in 10.0 mi East 4.6 mph - N/A   Overcast
5:56 AM 68.0 °F 66.9 °F 96% 30.13 in 9.0 mi East 4.6 mph - N/A   Overcast
6:23 AM 68.0 °F 66.2 °F 94% 30.12 in 4.0 mi East 3.5 mph - N/A   Overcast
6:28 AM 68.0 °F 66.2 °F 94% 30.12 in 1.8 mi East 4.6 mph - N/A   Overcast
6:36 AM 68.0 °F 66.2 °F 94% 30.12 in 1.0 mi East 4.6 mph - N/A   Overcast
6:46 AM 68.0 °F 66.2 °F 94% 30.12 in 3.0 mi East 3.5 mph - N/A   Overcast
6:53 AM 68.0 °F 66.2 °F 94% 30.12 in 2.0 mi ESE 4.6 mph - N/A   Overcast
6:56 AM 68.0 °F 66.9 °F 96% 30.12 in 2.0 mi East 4.6 mph - N/A   Overcast
6:58 AM 68.0 °F 66.2 °F 94% 30.12 in 2.0 mi East 3.5 mph - N/A   Overcast
7:18 AM 68.0 °F 68.0 °F 100% 30.13 in 2.0 mi East 3.5 mph - 0.00 in Rain Light Rain
7:56 AM 69.1 °F 68.0 °F 96% 30.13 in 7.0 mi Calm Calm - 0.00 in   Overcast
8:39 AM 69.8 °F 68.0 °F 94% 30.12 in 10.0 mi East 4.6 mph - N/A   Overcast
8:56 AM 69.8 °F 68.0 °F 94% 30.13 in 10.0 mi East 4.6 mph - N/A   Overcast
9:56 AM 70.0 °F 69.1 °F 97% 30.13 in 6.0 mi ESE 4.6 mph - 0.00 in Rain Light Rain
10:56 AM 70.0 °F 69.1 °F 97% 30.13 in 3.0 mi Calm Calm - 0.00 in   Overcast
11:56 AM 71.1 °F 69.1 °F 93% 30.11 in 10.0 mi Calm Calm - N/A   Overcast
12:08 PM 71.6 °F 69.8 °F 94% 30.11 in 3.0 mi SSW 3.5 mph - N/A   Overcast
12:42 PM 71.6 °F 69.8 °F 94% 30.10 in 3.0 mi South 5.8 mph - N/A   Overcast
12:56 PM 73.0 °F 70.0 °F 90% 30.10 in 3.0 mi South 6.9 mph - N/A   Scattered Clouds
1:03 PM 71.6 °F 69.8 °F 94% 30.10 in 10.0 mi SSW 8.1 mph - N/A   Mostly Cloudy
1:43 PM 73.4 °F 69.8 °F 88% 30.10 in 10.0 mi SSW 8.1 mph - N/A   Scattered Clouds
1:56 PM 73.4 °F 69.8 °F 88% 30.10 in 10.0 mi SSW 8.1 mph - N/A   Scattered Clouds
2:56 PM 73.9 °F 69.1 °F 85% 30.09 in 10.0 mi SSW 8.1 mph - N/A   Partly Cloudy
3:56 PM 73.9 °F 69.1 °F 85% 30.09 in 10.0 mi SSW 9.2 mph - N/A   Clear
4:56 PM 71.6 °F 69.8 °F 94% 30.09 in 10.0 mi South 6.9 mph - N/A   Scattered Clouds
5:56 PM 71.1 °F 69.1 °F 93% 30.09 in 10.0 mi SSW 5.8 mph - N/A   Mostly Cloudy
6:56 PM 69.1 °F 66.9 °F 93% 30.11 in 10.0 mi South 4.6 mph - N/A   Clear
7:56 PM 69.1 °F 66.9 °F 93% 30.12 in 10.0 mi SSW 5.8 mph - N/A   Clear
8:41 PM 69.8 °F 66.2 °F 88% 30.12 in 10.0 mi SSW 4.6 mph - N/A   Mostly Cloudy
8:56 PM 69.8 °F 68.0 °F 94% 30.13 in 10.0 mi SW 4.6 mph - N/A   Overcast
9:56 PM 68.0 °F 66.9 °F 96% 30.13 in 10.0 mi South 3.5 mph - N/A   Scattered Clouds
10:07 PM 69.8 °F 68.0 °F 94% 30.13 in 10.0 mi Calm Calm - N/A   Mostly Cloudy
10:56 PM 69.1 °F 66.9 °F 93% 30.13 in 10.0 mi Calm Calm - N/A   Mostly Cloudy
11:36 PM 69.8 °F 68.0 °F 94% 30.13 in 10.0 mi SW 4.6 mph - N/A   Mostly Cloudy
11:48 PM 69.8 °F 68.0 °F 94% 30.13 in 10.0 mi SW 3.5 mph - N/A   Mostly Cloudy
11:56 PM 69.1 °F 68.0 °F 96% 30.13 in 10.0 mi SW 4.6 mph - N/A   Overcast